Change the Weather History Date:

Wednesday, January 2, 2013

  Actual Average Record
Temperature  
Mean Temperature 20 °F 16 °F  
Max Temperature 33 °F 26 °F 57 °F (1998)
Min Temperature 6 °F 7 °F -34 °F (1887)
Degree Days  
Heating Degree Days 45 48  
Month to date heating degree days 95 96  
Since 1 July heating degree days 3169 3216  
Cooling Degree Days 0 0  
Month to date cooling degree days 0 0  
Year to date cooling degree days 0 0  
Moisture  
Dew Point 22 °F    
Average Humidity 84    
Maximum Humidity 92    
Minimum Humidity 75    
Precipitation  
Precipitation T in 0.01 in 0.48 in (1975)
Month to date precipitation T 0.03  
Year to date precipitation T 0.03  
Snow  
Snow T in 0.20 in 4.20 in (1975)
Month to date snowfall T 0.5  
Since 1 July snowfall 14.1 16.8  
Snow Depth 5.00 in    
Sea Level Pressure  
Sea Level Pressure 30.10 in    
Wind  
Wind Speed 13 mph (NW)    
Max Wind Speed 22 mph    
Max Gust Speed 26 mph    
Visibility 10 miles    
Events      
T = Trace of Precipitation, MM = Missing Value Source: NWS Daily Summary

Daily Weather History Graph

Daily Weather History Graph

Search for Another Location

Airport or City:

Trip Planner

Search our weather history database for the weather conditions in past years. The results will help you decide how hot, cold, wet, or windy it might be!

Date:

Astronomy

Jan. 02, 2013 Rise Set
Actual Time 8:09 AM CST 5:05 PM CST
Civil Twilight 7:35 AM CST 5:38 PM CST
Nautical Twilight 6:59 AM CST 6:15 PM CST
Astronomical Twilight 6:24 AM CST 6:50 PM CST
Moon 10:53 PM CST (1/2) 10:38 AM CST (1/2)
Length of Visible Light 10h 02m
Length of Day
8h 56m
Waning Gibbous, 75% of the Moon is Illuminated
Jan 2
Waning Gibbous
Jan 4
Last Quarter
Jan 11
New
Jan 18
First Quarter
Jan 26
Full

Hourly Weather History & Observations

Time (CST) Temp. Windchill Dew Point Humidity Pressure Visibility Wind Dir Wind Speed Gust Speed Precip Events Conditions
12:55 AM 6.1 °F - 3.9 °F 91% 30.03 in 9.0 mi Calm Calm - N/A   Clear
1:55 AM 12.0 °F 5.9 °F 10.0 °F 92% 30.01 in 10.0 mi WSW 3.5 mph - N/A   Overcast
2:10 AM 12.2 °F 6.1 °F 10.4 °F 92% 29.95 in 10.0 mi West 3.5 mph - N/A   Overcast
2:55 AM 17.1 °F 10.0 °F 15.1 °F 92% 30.01 in 10.0 mi West 4.6 mph - 0.00 in   Overcast
3:55 AM 27.0 °F 14.3 °F 24.1 °F 89% 30.00 in 10.0 mi WNW 17.3 mph - 0.00 in   Overcast
4:42 AM 28.4 °F 17.0 °F 24.8 °F 86% 29.93 in 10.0 mi WNW 15.0 mph - N/A   Overcast
4:55 AM 28.0 °F 16.1 °F 25.0 °F 88% 30.00 in 10.0 mi WNW 16.1 mph - N/A   Overcast
5:55 AM 28.9 °F - 24.1 °F 82% 30.00 in 10.0 mi North - - N/A   Overcast
6:40 AM 28.4 °F 15.8 °F 24.8 °F 86% 29.94 in 10.0 mi NW 18.4 mph - N/A   Overcast
6:55 AM 28.9 °F 16.9 °F 25.0 °F 85% 30.01 in 10.0 mi WNW 17.3 mph - N/A   Overcast
7:15 AM 28.4 °F 16.2 °F 24.8 °F 86% 29.95 in 10.0 mi WNW 17.3 mph - N/A   Overcast
7:55 AM 28.9 °F 17.3 °F 26.1 °F 89% 30.02 in 10.0 mi WNW 16.1 mph - N/A   Overcast
8:55 AM 30.0 °F 18.3 °F 25.0 °F 82% 30.04 in 10.0 mi NW 17.3 mph - N/A   Overcast
9:55 AM 30.0 °F 19.1 °F 26.1 °F 85% 30.06 in 10.0 mi WNW 15.0 mph - N/A   Overcast
10:55 AM 30.9 °F 20.2 °F 26.1 °F 82% 30.06 in 10.0 mi WNW 15.0 mph - N/A   Overcast
11:55 AM 32.0 °F 20.8 °F 26.1 °F 79% 30.07 in 10.0 mi WNW 17.3 mph - N/A   Overcast
12:55 PM 32.0 °F 21.2 °F 26.1 °F 79% 30.07 in 10.0 mi WNW 16.1 mph - N/A   Overcast
1:55 PM 33.1 °F 22.6 °F 27.0 °F 78% 30.07 in 10.0 mi NW 16.1 mph - N/A   Overcast
2:55 PM 32.0 °F 23.0 °F 26.1 °F 79% 30.09 in 10.0 mi WNW 11.5 mph - N/A   Overcast
3:55 PM 28.9 °F 20.4 °F 24.1 °F 82% 30.10 in 10.0 mi WNW 9.2 mph - N/A   Scattered Clouds
4:45 PM 28.4 °F 19.7 °F 24.8 °F 86% 30.06 in 10.0 mi WNW 9.2 mph - N/A   Mostly Cloudy
4:55 PM 28.9 °F 19.8 °F 26.1 °F 89% 30.11 in 10.0 mi WNW 10.4 mph - N/A   Overcast
5:55 PM 30.0 °F 20.0 °F 26.1 °F 85% 30.13 in 10.0 mi NW 12.7 mph - N/A   Overcast
6:55 PM 28.9 °F 18.6 °F 25.0 °F 85% 30.16 in 10.0 mi NW 12.7 mph - N/A   Overcast
7:55 PM 28.9 °F 19.2 °F 25.0 °F 85% 30.18 in 10.0 mi NW 11.5 mph - N/A   Overcast
8:55 PM 28.0 °F 17.0 °F 24.1 °F 85% 30.21 in 10.0 mi NW 13.8 mph - N/A   Overcast
9:28 PM 26.6 °F 14.3 °F 23.0 °F 86% 30.18 in 10.0 mi North 16.1 mph - 0.00 in   Overcast
9:52 PM 24.8 °F 12.9 °F 23.0 °F 93% 30.19 in 9.0 mi North 13.8 mph - 0.00 in   Overcast
9:55 PM 25.0 °F 12.6 °F 21.9 °F 88% 30.25 in 9.0 mi North 15.0 mph - 0.00 in   Overcast
10:02 PM 24.8 °F 11.1 °F 21.2 °F 86% 30.20 in 10.0 mi North 18.4 mph - N/A   Overcast
10:51 PM 19.4 °F 4.5 °F 15.8 °F 86% 30.24 in 10.0 mi NNE 17.3 mph - N/A   Overcast
10:55 PM 19.9 °F 4.8 °F 15.1 °F 81% 30.30 in 10.0 mi North 18.4 mph 25.3 mph N/A   Overcast
11:05 PM 19.4 °F 5.0 °F 14.0 °F 80% 30.24 in 10.0 mi North 16.1 mph - N/A   Overcast
11:55 PM 17.1 °F 1.0 °F 12.0 °F 81% 30.33 in 10.0 mi North 18.4 mph - N/A   Overcast